Tracking 19709 objects as of 18-Jun-2019
HD Live streaming from Space Station
objects crossing your sky now

CZ-4B DEB

Track CZ-4B DEB now!
10-day predictions


NORAD ID: 29538
Int'l Code: 2006-015E
Perigee: 595.9 km
Apogee: 801.5 km
Inclination: 97.9 °
Period: 98.6 minutes
Semi major axis: 7069 km
RCS: 0.0184 m2 (small)
Launch date: April 26, 2006
Source: People's Republic of China (PRC)
Launch site: Taiyaun Space Center, China (TSC)

Note: This is SATELLITE DEBRIS
aabbcc
Your satellite tracking list
Your tracking list is empty




NASA's NSSDC Master Catalog

Two Line Element Set (TLE):
1 29538U 06015E   19168.13088245  .00000166  00000-0  38838-4 0  9992
2 29538  97.9013 303.4718 0145392  11.7950 348.6597 14.60501480692201
Source of the keplerian elements: AFSPC